Location: Newark
(35.0167°N, 135.7667°E)
Time: 04:37:23
(UTC+00:00)

N. Korean satellite - Pass Details

Date: 28 October 2019
Orbit: 456 x 506 km, 97.2° (Epoch: 18 November)

Event Time Altitude Azimuth Distance (km) Brightness Sun altitude
Rises 08:47:50 0° 196° (SSW) 2,462 10.5 -8.9°
Reaches altitude 10° 08:50:11 10° 212° (SSW) 1,598 9.8 -9.4°
Maximum altitude 08:52:53 22° 264° (W) 1,064 9.5 -9.9°
Drops below altitude 10° 08:55:39 10° 317° (NW) 1,623 9.7 -10.5°
Sets 08:58:03 0° 333° (NNW) 2,513 10.4 -10.9°
